[[{"header":{"parameterUnit":"m.s-1","parameterCategory":1,"la1":30.2991,"la2":30.254,"lo1":-89.0895,"lo2":-89.0444,"dy":0.0017,"dx":0.0017,"nx":28,"ny":28,"refTime":"2025-11-09T09:00:00:Z","depth":0,"parameterNumber":2,"parameterNumberName":"U-component_of_WINDS"},"data":[0,0,0,0,0,0,0,0,0,0,0,0,0,0,0,0,0,0,0,0,0,0,0,0,0,0,0,0,0,0,0,0,0,0,0,0,0,0,0,0,0,0,0,0,0,0,0,0,0,0,0,0,0,0,0,0,0,0,2.2657,2.2657,0,2.2678,2.2678,2.2678,2.267,2.267,2.2669,2.2669,2.2689,2.269,2.2691,0,0,0,0,0,0,0,0,0,0,0,0,0,2.2611,2.2611,2.2657,2.2658,2.2658,2.2678,2.2678,2.2679,2.267,2.267,2.2669,2.2668,2.2688,2.269,2.2691,0,0,0,0,0,0,0,0,0,0,0,0,0,2.2631,2.2612,2.2657,2.2656,2.2656,2.2678,2.2678,2.2679,2.267,2.267,2.2669,2.2668,2.2688,2.2689,2.2691,2.2715,0,0,2.2695,2.2696,0,0,0,0,0,0,0,0,2.263,2.2633,2.2656,2.2656,2.2656,2.2671,2.2669,2.2691,2.267,2.2665,2.2669,2.2668,2.2683,2.2685,2.2691,2.2716,2.2717,2.2696,2.2697,2.2697,2.2698,0,0,0,0,0,0,0,2.2628,2.2632,2.2665,2.2656,2.2657,2.2655,2.2657,2.2673,2.2678,2.2665,2.2665,2.2667,2.2683,2.2689,2.2691,2.2717,2.2696,2.2697,2.2698,2.2698,2.2764,2.2764,0,0,0,0,0,0,2.2627,2.2631,2.2665,2.2666,2.2641,2.2656,2.2658,2.2667,2.2678,2.2679,2.2668,2.2667,2.2687,2.2689,2.2692,2.272,2.2697,2.2699,2.2699,2.2763,2.2764,2.2765,0,0,0,0,0,0,2.2626,2.263,2.2664,2.2648,2.2652,2.2658,2.2667,2.2668,2.2673,2.268,2.268,2.2673,2.2686,2.269,2.2709,2.2721,2.2699,2.2701,2.2762,2.2763,2.2764,2.2778,0,0,0,0,0,0,2.2625,2.263,2.2639,2.2649,2.2653,2.2681,2.2668,2.2669,2.2676,2.2675,2.2685,2.2686,2.2686,2.2707,2.2711,2.2723,2.2702,2.2761,2.2762,2.2764,2.2776,2.2779,2.2782,0,0,0,0,0,2.2623,2.2641,2.2639,2.2643,2.2664,2.2682,2.2684,2.2685,2.2677,2.2686,2.2691,2.2685,2.272,2.2709,2.2713,2.2726,2.276,2.2762,2.2764,2.2775,2.2779,2.2782,0,0,0,0,0,0,2.2632,2.2642,2.264,2.2662,2.2671,2.268,2.2691,2.2689,2.27,2.2698,2.2698,2.2701,2.2721,2.2726,2.2714,2.275,2.2739,2.2741,2.2746,2.2749,2.2752,2.275,2.2703,0,0,0,0,0,2.2636,2.265,2.2658,2.2677,2.2682,2.2686,2.2694,2.2693,2.2703,2.2706,2.2712,2.2721,2.2734,2.2742,2.2754,2.2778,2.278,2.2788,2.2791,2.2794,2.2795,2.2809,2.2813,2.2771,2.2771,2.2771,0,0,2.2645,2.2653,2.2661,2.2679,2.2686,2.27,2.2689,2.2704,2.2714,2.2708,2.2727,2.2732,2.2742,2.2764,2.2774,2.2769,2.2808,2.2796,2.2798,2.2798,2.2811,2.2815,2.2819,2.2772,2.2772,2.2772,0,0,2.2669,2.2676,2.2693,2.2701,2.2712,2.2715,2.2719,2.2729,2.2732,2.2752,2.2748,2.2761,2.2783,2.279,2.2797,2.2826,2.2822,2.283,2.2844,2.2857,2.2861,2.2864,2.2874,2.2877,2.2832,2.2833,2.2833,0,2.2679,2.27,2.2701,2.2717,2.2725,2.2722,2.2739,2.2746,2.276,2.2766,2.276,2.2789,2.2795,2.2819,2.2826,2.2832,2.2837,2.2828,2.286,2.2863,2.2866,2.2875,2.2879,2.2833,2.2833,2.2833,2.2833,0,2.2711,2.2726,2.2738,2.2753,2.2762,2.2778,2.2783,2.2792,2.2792,2.2796,2.2817,2.2825,2.2839,2.2845,2.2844,2.2869,2.2865,2.286,2.2848,2.2871,2.288,2.2883,2.2835,2.2834,2.2834,2.2834,0,0,2.2738,2.2756,2.276,2.2767,2.278,2.2792,2.2808,2.2823,2.2831,2.2842,2.2856,2.2876,2.2871,2.2879,2.288,2.2891,2.2914,2.2884,2.2884,2.2889,2.2942,2.2945,2.2949,2.2912,2.2913,2.2913,2.2941,0,2.2762,2.2791,2.2794,2.282,2.2834,2.2833,2.2847,2.2857,2.2862,2.2874,2.288,2.2894,2.2887,2.2891,2.2903,2.2908,2.2924,2.2907,2.2924,2.2925,2.292,2.2954,2.2957,2.2982,2.2944,2.2945,2.2945,0,2.2794,2.2806,2.2834,2.2846,2.2852,2.2865,2.2879,2.2892,2.2903,2.2906,2.2916,2.2916,2.2933,2.2922,2.2947,2.2935,2.2942,2.2947,2.2948,2.2948,2.2935,2.2954,2.299,2.2994,2.2951,2.295,2.295,0,2.281,2.2834,2.2854,2.286,2.2876,2.2885,2.2892,2.2903,2.2912,2.2924,2.293,2.2945,2.2952,2.2964,2.2968,2.296,2.2992,2.2981,2.2994,2.2994,2.2999,2.2999,2.3036,2.3007,2.3006,2.3006,2.3006,0,2.2836,2.2852,2.2862,2.2873,2.2893,2.2897,2.2916,2.2922,2.2932,2.2946,2.2946,2.2958,2.2963,2.2977,2.298,2.3,2.3003,2.3006,2.3006,2.3005,2.3005,2.3009,2.3007,2.3007,2.3007,2.3007,2.3007,0,2.2856,2.2863,2.2884,2.2898,2.2902,2.2915,2.2927,2.2939,2.2945,2.2962,2.2966,2.2974,2.2991,2.2996,2.3015,2.3018,2.304,2.304,2.3036,2.3036,2.3049,2.3047,2.3089,2.3095,2.3062,2.3063,2.3063,0,2.2871,2.2885,2.29,2.2909,2.2917,2.2932,2.2941,2.2947,2.2957,2.2972,2.2982,2.2999,2.3012,2.3038,2.3045,2.3061,2.306,2.3074,2.3062,2.3061,2.3059,2.3058,2.3059,2.3075,2.3075,2.3076,2.3076,0,2.2898,2.2901,2.2915,2.2931,2.2943,2.2955,2.2967,2.2975,2.2982,2.2994,2.301,2.3021,2.3042,2.3058,2.3073,2.3081,2.3079,2.308,2.3084,2.3082,2.3079,2.308,2.3041,2.3078,2.3078,2.3078,2.3078,2.3078,2.2916,2.2927,2.2941,2.2957,2.2967,2.2979,2.299,2.2998,2.3013,2.303,2.3033,2.3051,2.3064,2.3085,2.3093,2.3108,2.3104,2.3109,2.311,2.3111,2.3112,2.3078,2.3111,2.3111,2.3111,2.3111,2.3111,0,2.2941,2.295,2.2965,2.2983,2.2996,2.2995,2.3009,2.302,2.3036,2.3048,2.3062,2.3082,2.3098,2.3108,2.3124,2.3134,2.3134,2.3138,2.3137,2.3138,2.3115,2.311,2.3138,2.3138,2.3138,2.3138,2.3138,2.3138,2.2956,2.2976,2.2981,2.3007,2.3016,2.3034,2.3042,2.3053,2.3063,2.3085,2.3099,2.3106,2.3118,2.3135,2.3151,2.3153,2.3159,2.3163,2.3165,2.3143,2.314,2.3137,2.3132,2.3165,2.3165,2.3187,2.3188,2.3188]},{"header":{"parameterUnit":"m.s-1","parameterCategory":1,"la1":30.2991,"la2":30.254,"lo1":-89.0895,"lo2":-89.0444,"dy":0.0017,"dx":0.0017,"nx":28,"ny":28,"refTime":"2025-11-09T09:00:00:Z","depth":0,"parameterNumber":3,"parameterNumberName":"V-component_of_WINDS"},"data":[0,0,0,0,0,0,0,0,0,0,0,0,0,0,0,0,0,0,0,0,0,0,0,0,0,0,0,0,0,0,0,0,0,0,0,0,0,0,0,0,0,0,0,0,0,0,0,0,0,0,0,0,0,0,0,0,0,0,-9.5259,-9.5261,0,-9.5464,-9.5466,-9.5468,-9.5363,-9.5357,-9.5352,-9.5347,-9.5549,-9.5559,-9.557,0,0,0,0,0,0,0,0,0,0,0,0,0,-9.4768,-9.4777,-9.5258,-9.5261,-9.5264,-9.5463,-9.5466,-9.5469,-9.5363,-9.5357,-9.535,-9.5344,-9.5546,-9.5558,-9.557,0,0,0,0,0,0,0,0,0,0,0,0,0,-9.4978,-9.478,-9.5258,-9.5235,-9.5235,-9.5463,-9.5466,-9.547,-9.5365,-9.5357,-9.5349,-9.5341,-9.5542,-9.5557,-9.5572,-9.5832,0,0,-9.562,-9.5627,0,0,0,0,0,0,0,0,-9.4966,-9.4996,-9.5236,-9.5237,-9.5238,-9.5379,-9.5367,-9.5591,-9.5367,-9.5315,-9.5346,-9.5337,-9.5499,-9.5517,-9.5573,-9.5841,-9.585,-9.5621,-9.5631,-9.5638,-9.5642,0,0,0,0,0,0,0,-9.4951,-9.4986,-9.5339,-9.5239,-9.5241,-9.5212,-9.5233,-9.5409,-9.545,-9.5319,-9.5312,-9.5338,-9.5497,-9.5559,-9.5577,-9.5853,-9.5621,-9.5635,-9.5645,-9.5651,-9.6344,-9.6353,0,0,0,0,0,0,-9.4939,-9.4975,-9.5333,-9.5345,-9.5079,-9.5228,-9.5251,-9.5342,-9.5448,-9.5456,-9.5345,-9.5333,-9.5536,-9.5559,-9.5584,-9.5896,-9.5638,-9.5652,-9.5661,-9.6335,-9.6346,-9.6356,0,0,0,0,0,0,-9.4929,-9.4972,-9.5324,-9.5159,-9.5201,-9.5245,-9.5348,-9.535,-9.5411,-9.5467,-9.5473,-9.5401,-9.553,-9.5562,-9.5772,-9.5901,-9.5659,-9.5674,-9.6325,-9.6339,-9.6351,-9.6521,0,0,0,0,0,0,-9.4915,-9.4969,-9.507,-9.5162,-9.5211,-9.5512,-9.5356,-9.536,-9.544,-9.5425,-9.5521,-9.5529,-9.5526,-9.5749,-9.5787,-9.5918,-9.5686,-9.6313,-9.6331,-9.6347,-9.6504,-9.6538,-9.6568,0,0,0,0,0,-9.4898,-9.5107,-9.5075,-9.5119,-9.5338,-9.5519,-9.5547,-9.5542,-9.5451,-9.5551,-9.5587,-9.5526,-9.5881,-9.5771,-9.5814,-9.5951,-9.6305,-9.6326,-9.6346,-9.6489,-9.6532,-9.6567,0,0,0,0,0,0,-9.5027,-9.5119,-9.5084,-9.533,-9.5418,-9.5501,-9.5628,-9.5587,-9.57,-9.5682,-9.5668,-9.569,-9.5909,-9.595,-9.5827,-9.6208,-9.6078,-9.6108,-9.6173,-9.6214,-9.6245,-9.6231,-9.5699,0,0,0,0,0,-9.5084,-9.5226,-9.5298,-9.5508,-9.5554,-9.5584,-9.5662,-9.5652,-9.5741,-9.5776,-9.5827,-9.5914,-9.6045,-9.6132,-9.6255,-9.6509,-9.6528,-9.6625,-9.6657,-9.6683,-9.6709,-9.6846,-9.689,-9.6423,-9.6422,-9.6422,0,0,-9.5203,-9.5271,-9.5361,-9.5536,-9.5602,-9.5748,-9.5616,-9.5774,-9.5882,-9.5799,-9.6002,-9.6043,-9.6138,-9.6372,-9.6477,-9.6413,-9.6842,-9.6709,-9.6729,-9.6741,-9.6872,-9.6916,-9.6955,-9.6436,-9.6434,-9.6432,0,0,-9.5495,-9.5561,-9.5744,-9.5814,-9.5918,-9.5937,-9.5981,-9.6071,-9.6095,-9.6299,-9.624,-9.6366,-9.6592,-9.6663,-9.6729,-9.7049,-9.6997,-9.7089,-9.7257,-9.7391,-9.7428,-9.7461,-9.7575,-9.7617,-9.7115,-9.7115,-9.7115,0,-9.5629,-9.5849,-9.5842,-9.6007,-9.6085,-9.602,-9.6204,-9.6272,-9.6409,-9.6464,-9.6391,-9.6675,-9.6734,-9.6984,-9.7062,-9.7117,-9.7166,-9.7078,-9.7424,-9.7457,-9.7487,-9.7596,-9.7639,-9.7126,-9.7125,-9.7123,-9.7122,0,-9.6009,-9.6162,-9.6296,-9.6435,-9.6528,-9.6701,-9.6719,-9.6814,-9.6795,-9.682,-9.7028,-9.7097,-9.7235,-9.7293,-9.7274,-9.754,-9.7497,-9.7425,-9.7294,-9.7542,-9.7644,-9.7686,-9.7141,-9.7137,-9.7134,-9.7131,0,0,-9.6387,-9.6521,-9.6571,-9.6633,-9.6743,-9.686,-9.703,-9.7167,-9.7248,-9.7345,-9.7487,-9.768,-9.7615,-9.7689,-9.7678,-9.7796,-9.8046,-9.7709,-9.7711,-9.777,-9.8343,-9.8397,-9.8446,-9.8012,-9.802,-9.8026,-9.8335,0,-9.6687,-9.6988,-9.6987,-9.7264,-9.7404,-9.7345,-9.7493,-9.7576,-9.7605,-9.7726,-9.7756,-9.7894,-9.7797,-9.7842,-9.7956,-9.7992,-9.8161,-9.7969,-9.8142,-9.8148,-9.8121,-9.8499,-9.8557,-9.8845,-9.8375,-9.8381,-9.8386,0,-9.7077,-9.719,-9.7482,-9.7573,-9.7632,-9.7766,-9.7891,-9.8009,-9.8101,-9.8113,-9.8198,-9.8169,-9.834,-9.8205,-9.8439,-9.8309,-9.8379,-9.8407,-9.8418,-9.8434,-9.8283,-9.8525,-9.8936,-9.898,-9.8449,-9.8444,-9.844,0,-9.7324,-9.7549,-9.7753,-9.7808,-9.7919,-9.8015,-9.8065,-9.8149,-9.8231,-9.834,-9.8394,-9.852,-9.8589,-9.8687,-9.8692,-9.8593,-9.8929,-9.8793,-9.8943,-9.8943,-9.9016,-9.9011,-9.9445,-9.9061,-9.9061,-9.906,-9.9059,0,-9.7659,-9.784,-9.7866,-9.7992,-9.8193,-9.8189,-9.8387,-9.8428,-9.8504,-9.8634,-9.8589,-9.8713,-9.8712,-9.8837,-9.8842,-9.9036,-9.9067,-9.908,-9.9079,-9.9085,-9.9083,-9.9131,-9.9111,-9.9071,-9.9069,-9.9066,-9.9064,0,-9.7969,-9.7994,-9.8213,-9.8301,-9.8327,-9.8472,-9.8545,-9.8664,-9.8689,-9.8855,-9.8894,-9.8932,-9.9077,-9.9093,-9.926,-9.9263,-9.9497,-9.9474,-9.9467,-9.9464,-9.9612,-9.9598,-10.0091,-10.0156,-9.973,-9.9734,-9.9738,0,-9.8182,-9.832,-9.8424,-9.851,-9.8567,-9.8705,-9.879,-9.8792,-9.8881,-9.8997,-9.9102,-9.9243,-9.9356,-9.959,-9.9632,-9.9759,-9.974,-9.9904,-9.9758,-9.976,-9.9742,-9.9735,-9.9748,-9.9932,-9.9936,-9.994,-9.9943,0,-9.8556,-9.8563,-9.8688,-9.882,-9.8923,-9.9026,-9.9121,-9.9194,-9.9207,-9.931,-9.9459,-9.9548,-9.972,-9.9861,-9.9987,-10.0035,-9.9992,-9.9989,-10.003,-10.0037,-10.0028,-10.0036,-9.9545,-9.9977,-9.9974,-9.9971,-9.997,-9.9968,-9.8825,-9.8945,-9.9038,-9.918,-9.9253,-9.9344,-9.946,-9.9501,-9.9627,-9.977,-9.9762,-9.9927,-10.0014,-10.018,-10.0238,-10.0365,-10.031,-10.037,-10.0385,-10.04,-10.0416,-10.0008,-10.0388,-10.0387,-10.0386,-10.0385,-10.0385,0,-9.9197,-9.9255,-9.9385,-9.9523,-9.9634,-9.9586,-9.969,-9.9786,-9.9933,-10.0019,-10.0133,-10.0304,-10.0441,-10.0494,-10.0626,-10.0718,-10.0701,-10.0753,-10.0746,-10.0758,-10.0457,-10.0408,-10.0764,-10.0764,-10.0764,-10.0764,-10.0764,-10.0764,-9.9405,-9.9607,-9.9624,-9.9861,-9.9916,-10.008,-10.0143,-10.0227,-10.0296,-10.0491,-10.0605,-10.064,-10.0713,-10.0851,-10.0973,-10.0984,-10.1035,-10.1096,-10.1099,-10.0817,-10.0779,-10.0742,-10.0697,-10.1107,-10.1107,-10.1389,-10.1392,-10.1394]}]]